VE3CGR-6 Weather Reports


Display with metric or nautical units.
time (UTC)temp
F
wind
direction
speed
MPH
gust
MPH
rain 1hr
in
rain 24hr
in
rain mn
in
humidity
%
barometer
mb
20260503233518 50 270 1.0 7.0 0.00 0.02 0.02 78 1007.8
20260503232518 50 270 3.0 17.0 0.00 0.02 0.02 78 1007.8
20260503231518 50 270 2.0 12.0 0.00 0.02 0.02 79 1007.8
20260503230518 50 270 2.0 7.0 0.00 0.02 0.02 80 1007.6
20260503225518 49 270 1.0 11.0 0.00 0.02 0.02 79 1007.6
20260503224518 49 270 2.0 12.0 0.00 0.02 0.02 80 1007.7
20260503223518 49 248 2.0 9.0 0.01 0.02 0.02 82 1007.8
20260503222518 49 293 1.0 11.0 0.01 0.02 0.02 83 1008.0
20260503221518 48 0.0 8.0 0.01 0.02 0.02 84 1007.8
20260503220518 48 0.0 4.0 0.01 0.02 0.02 83 1007.8
20260503215518 48 315 1.0 9.0 0.02 0.02 0.02 82 1008.0
20260503214518 48 270 1.0 8.0 0.02 0.02 0.02 82 1008.2
20260503213518 49 293 1.0 13.0 0.01 0.01 0.01 81 1008.3
20260503212518 49 293 4.0 13.0 0.01 0.01 0.01 78 1008.3
20260503211518 50 293 5.0 21.0 0.01 0.01 0.01 77 1008.3
20260503210518 50 315 5.0 21.0 0.01 0.01 0.01 74 1008.3
20260503205518 52 293 3.0 16.0 0.00 0.00 0.00 69 1008.1
20260503204518 53 293 5.0 15.0 0.00 0.00 0.00 62 1008.1
20260503203516 54 293 3.0 19.0 0.00 0.00 0.00 60 1008.3
20260503202518 54 293 1.0 8.0 0.00 0.00 0.00 52 1008.1
20260503201518 54 203 1.0 5.0 0.00 0.00 0.00 48 1007.9
20260503200518 54 180 1.0 6.0 0.00 0.00 0.00 47 1007.9
20260503195518 54 180 6.0 12.0 0.00 0.00 0.00 48 1008.0
20260503194518 54 180 1.0 7.0 0.00 0.00 0.00 44 1008.1
20260503193518 54 180 3.0 14.0 0.00 0.00 0.00 42 1008.0
20260503192518 55 203 2.0 9.0 0.00 0.00 0.00 43 1008.1
20260503191518 55 203 1.0 8.0 0.00 0.00 0.00 43 1008.2
20260503190518 55 270 1.0 10.0 0.00 0.00 0.00 46 1008.5
20260503185518 55 225 1.0 9.0 0.00 0.00 0.00 42 1008.8
20260503184518 55 180 1.0 6.0 0.00 0.00 0.00 42 1009.0
20260503183518 55 203 1.0 8.0 0.00 0.00 0.00 41 1009.1
20260503182518 55 203 2.0 10.0 0.00 0.00 0.00 41 1009.3
20260503181518 54 180 1.0 8.0 0.00 0.00 0.00 42 1009.4
20260503180518 55 225 2.0 9.0 0.00 0.00 0.00 42 1009.7
20260503175518 54 158 2.0 13.0 0.00 0.00 0.00 42 1009.8
20260503174518 54 203 4.0 17.0 0.00 0.00 0.00 39 1009.8
20260503173517 55 225 1.0 7.0 0.00 0.00 0.00 39 1010.0
20260503172517 55 203 3.0 13.0 0.00 0.00 0.00 38 1010.1
20260503171518 54 203 2.0 11.0 0.00 0.00 0.00 39 1010.2
20260503170518 53 180 2.0 10.0 0.00 0.00 0.00 39 1010.3
20260503150517 50 0.0 3.0 0.00 0.00 0.00 47 1011.9
20260503130517 44 0.0 0.0 0.00 0.00 0.00 58 1012.8
20260503110517 29 0.0 0.0 0.00 0.00 0.00 87 1012.5
20260503081517 28 0.0 0.0 0.00 0.00 0.00 87 1013.3
20260503080517 28 0.0 0.0 0.00 0.00 0.00 87 1013.3
20260503072517 28 0.0 0.0 0.00 0.00 0.00 87 1013.4
20260503071517 28 0.0 0.0 0.00 0.00 0.00 87 1013.5
20260503070517 29 0.0 0.0 0.00 0.00 0.00 87 1013.5
20260503054517 30 0.0 0.0 0.00 0.00 0.00 86 1013.9
20260503053517 30 0.0 0.0 0.00 0.00 0.00 85 1014.1
20260503052517 30 0.0 0.0 0.00 0.00 0.00 85 1014.1
20260503051517 30 0.0 0.0 0.00 0.00 0.00 85 1014.2
20260503050517 31 0.0 0.0 0.00 0.00 0.00 84 1014.2
20260503045517 31 0.0 0.0 0.00 0.00 0.00 84 1014.2
20260503044517 31 0.0 0.0 0.00 0.00 0.00 84 1014.3
20260503043517 31 0.0 0.0 0.00 0.00 0.00 83 1014.3
20260503042517 32 0.0 0.0 0.00 0.00 0.00 83 1014.4
20260503041517 32 0.0 0.0 0.00 0.00 0.00 82 1014.5
20260503040517 32 0.0 0.0 0.00 0.00 0.00 82 1014.4
20260503035517 33 0.0 0.0 0.00 0.00 0.00 82 1014.4
20260503034517 33 0.0 0.0 0.00 0.00 0.00 82 1014.5
20260503033517 33 0.0 0.0 0.00 0.00 0.00 81 1014.4
20260503032517 33 0.0 0.0 0.00 0.00 0.00 80 1014.4
20260503031517 34 0.0 0.0 0.00 0.00 0.00 79 1014.5
20260503030517 34 0.0 0.0 0.00 0.00 0.00 79 1014.4
20260503025517 35 0.0 0.0 0.00 0.00 0.00 77 1014.5
20260503024517 35 0.0 0.0 0.00 0.00 0.00 76 1014.5
20260503023517 36 0.0 0.0 0.00 0.00 0.00 76 1014.4
20260503022517 36 0.0 0.0 0.00 0.00 0.00 74 1014.5
20260503021517 36 0.0 0.0 0.00 0.00 0.00 73 1014.6
20260503020517 37 0.0 0.0 0.00 0.00 0.00 71 1014.4
20260503015517 37 0.0 0.0 0.00 0.00 0.00 70 1014.4
20260503014517 38 0.0 0.0 0.00 0.00 0.00 67 1014.3
20260503013517 39 0.0 0.0 0.00 0.00 0.00 66 1014.3
20260503012517 39 0.0 0.0 0.00 0.00 0.00 63 1014.4
20260503011517 40 0.0 0.0 0.00 0.00 0.00 63 1014.4
20260503010517 41 0.0 0.0 0.00 0.00 0.00 60 1014.3
20260503005517 41 0.0 0.0 0.00 0.00 0.00 60 1014.2
20260503004517 41 0.0 0.0 0.00 0.00 0.00 60 1014.2
20260503003517 42 0.0 0.0 0.00 0.00 0.00 58 1014.2
20260503002517 42 0.0 0.0 0.00 0.00 0.00 58 1014.0
20260503001517 42 0.0 0.0 0.00 0.00 0.00 57 1014.0
20260503000517 42 0.0 0.0 0.00 0.00 0.00 55 1014.1
20260502235517 42 0.0 0.0 0.00 0.00 0.00 56 1014.1
20260502234517 43 0.0 0.0 0.00 0.00 0.00 57 1014.1